Volver al catálogo

BREEZE-M R/B

ActivoMEO
NORAD 37751·ROCKET BODY·🇷🇺 Russia

Lanzado Jul 15, 2011 desde Baikonur Cosmodrome

Loading…

Próximos Pases (próximas 24 horas)

TLE

ActualizadoSource: Space-Track

Época: Sep 14, 2026, 19:31 UTC

1 37751U 11035D   26257.81340778 -.00000152  00000-0  00000-0 0  9992
2 37751   9.5358  33.0653 0768731  68.3471 314.1990  1.12713241 62395

Sigue BREEZE-M R/B en tiempo real con AllMySat

Download on the App Store